Location: Sternwarte ZA, Rosenfeld-Brittheim
(48.2889°N, 8.6789°E)
Time: 00:29:53
(UTC+01:00)

ISS - Pass Details

Date: 07 December 2021
Orbit: 413 x 422 km, 51.6° (Epoch: 24 January)

Event Time Altitude Azimuth Distance (km) Brightness Sun altitude
Rises 17:04:40 0° 292° (WNW) 2,387 0.7 -5.6°
Reaches altitude 10° 17:06:47 10° 290° (WNW) 1,518 -0.3 -5.9°
Maximum altitude 17:10:11 70° 206° (SSW) 454 -3.4 -6.4°
Drops below altitude 10° 17:13:33 10° 123° (ESE) 1,505 -1.2 -6.9°
Enters shadow 17:16:49 -4° 120° (ESE) 2,848 0.1 -7.4°
